31-01-2023, 00:00:06,    225,    0.4,    3.6,   0.00,   0.00, 1022.1,   69.5, -999.0
31-01-2023, 00:00:16,    225,    0.0,    3.5,   0.00,   0.00, 1022.0,   69.2, -999.0
31-01-2023, 00:00:25,    225,    0.0,    3.5,   0.00,   0.00, 1021.9,   69.2, -999.0
31-01-2023, 00:00:35,    216,    0.4,    3.5,   0.00,   0.00, 1021.9,   69.3, -999.0
31-01-2023, 00:00:46,    206,    1.3,    3.6,   0.00,   0.00, 1022.1,   69.5, -999.0
31-01-2023, 00:00:55,    205,    0.7,    3.6,   0.00,   0.00, 1022.0,   69.6, -999.0
31-01-2023, 00:01:05,    230,    0.7,    3.6,   0.00,   0.00, 1022.0,   69.5, -999.0
31-01-2023, 00:01:15,    226,    1.9,    3.6,   0.00,   0.00, 1022.1,   69.5, -999.0
31-01-2023, 00:01:25,    225,    1.3,    3.5,   0.00,   0.00, 1022.0,   69.5, -999.0
31-01-2023, 00:01:35,    225,    0.0,    3.6,   0.00,   0.00, 1021.9,   69.1, -999.0
31-01-2023, 00:01:45,    223,    0.0,    3.5,   0.00,   0.00, 1021.9,   69.1, -999.0
31-01-2023, 00:01:56,    228,    0.3,    3.5,   0.00,   0.00, 1022.0,   69.4, -999.0
31-01-2023, 00:02:05,    228,    0.2,    3.6,   0.00,   0.00, 1022.0,   69.3, -999.0
31-01-2023, 00:02:15,    249,    0.0,    3.4,   0.00,   0.00, 1021.9,   69.2, -999.0
31-01-2023, 00:02:25,    206,    0.1,    3.5,   0.00,   0.00, 1022.0,   69.2, -999.0
31-01-2023, 00:02:35,    205,    0.2,    3.6,   0.00,   0.00, 1022.0,   69.4, -999.0
31-01-2023, 00:02:45,    240,    0.1,    3.5,   0.00,   0.00, 1022.0,   69.3, -999.0
31-01-2023, 00:02:55,    239,    0.0,    3.5,   0.00,   0.00, 1021.9,   69.2, -999.0
31-01-2023, 00:03:05,    240,    0.0,    3.6,   0.00,   0.00, 1021.9,   69.2, -999.0
31-01-2023, 00:03:15,    239,    0.0,    3.6,   0.00,   0.00, 1022.0,   69.2, -999.0
31-01-2023, 00:03:25,    237,    0.0,    3.6,   0.00,   0.00, 1022.0,   69.4, -999.0
31-01-2023, 00:03:35,    237,    0.0,    3.6,   0.00,   0.00, 1022.0,   69.3, -999.0
31-01-2023, 00:03:45,    238,    0.0,    3.5,   0.00,   0.00, 1022.0,   69.2, -999.0
31-01-2023, 00:03:55,    238,    0.0,    3.5,   0.00,   0.00, 1022.0,   69.2, -999.0
31-01-2023, 00:04:05,    237,    0.0,    3.5,   0.00,   0.00, 1022.0,   69.3, -999.0
31-01-2023, 00:04:15,    237,    0.0,    3.5,   0.00,   0.00, 1022.0,   69.2, -999.0
31-01-2023, 00:04:25,    205,    1.0,    3.6,   0.00,   0.00, 1022.1,   69.5, -999.0
31-01-2023, 00:04:35,    217,    1.1,    3.6,   0.00,   0.00, 1022.1,   69.7, -999.0
31-01-2023, 00:04:45,    219,    0.2,    3.6,   0.00,   0.00, 1022.1,   69.3, -999.0
31-01-2023, 00:04:55,    244,    3.2,    3.6,   0.00,   0.00, 1022.2,   69.6, -999.0
31-01-2023, 00:05:05,    246,    1.9,    3.6,   0.00,   0.00, 1022.1,   69.6, -999.0
31-01-2023, 00:05:15,    219,    2.3,    3.6,   0.00,   0.00, 1022.2,   69.7, -999.0
31-01-2023, 00:05:25,    223,    0.6,    3.6,   0.00,   0.00, 1022.2,   69.7, -999.0
31-01-2023, 00:05:35,    201,    1.1,    3.5,   0.00,   0.00, 1022.2,   69.7, -999.0
31-01-2023, 00:05:45,    223,    0.1,    3.5,   0.00,   0.00, 1022.1,   69.4, -999.0
31-01-2023, 00:05:55,    231,    1.2,    3.5,   0.00,   0.00, 1022.1,   69.6, -999.0
31-01-2023, 00:06:05,    225,    1.3,    3.6,   0.00,   0.00, 1022.2,   69.7, -999.0
31-01-2023, 00:06:15,    230,    0.5,    3.5,   0.00,   0.00, 1022.2,   69.6, -999.0
31-01-2023, 00:06:25,    230,    0.4,    3.5,   0.00,   0.00, 1022.1,   69.4, -999.0
31-01-2023, 00:06:35,    225,    0.3,    3.5,   0.00,   0.00, 1022.2,   69.5, -999.0
31-01-2023, 00:06:45,    243,    0.6,    3.5,   0.00,   0.00, 1022.2,   69.6, -999.0
31-01-2023, 00:06:55,    244,    0.0,    3.5,   0.00,   0.00, 1022.1,   69.4, -999.0
31-01-2023, 00:07:05,    244,    0.0,    3.5,   0.00,   0.00, 1022.1,   69.3, -999.0
31-01-2023, 00:07:15,    243,    0.0,    3.5,   0.00,   0.00, 1022.1,   69.4, -999.0
31-01-2023, 00:07:25,    255,    1.3,    3.5,   0.00,   0.00, 1022.2,   69.8, -999.0
31-01-2023, 00:07:35,    245,    0.2,    3.5,   0.00,   0.00, 1022.1,   69.7, -999.0
31-01-2023, 00:07:45,    202,    0.0,    3.5,   0.00,   0.00, 1022.1,   69.7, -999.0
31-01-2023, 00:07:55,    201,    0.0,    3.5,   0.00,   0.00, 1022.0,   69.5, -999.0
31-01-2023, 00:08:05,    269,    0.0,    3.4,   0.00,   0.00, 1022.0,   69.4, -999.0
31-01-2023, 00:08:14,    269,    0.0,    3.5,   0.00,   0.00, 1022.0,   69.4, -999.0
31-01-2023, 00:08:25,    269,    0.0,    3.5,   0.00,   0.00, 1022.0,   69.4, -999.0
31-01-2023, 00:08:35,    242,    0.0,    3.5,   0.00,   0.00, 1022.0,   69.3, -999.0
31-01-2023, 00:08:45,    224,    0.0,    3.5,   0.00,   0.00, 1022.0,   69.5, -999.0
31-01-2023, 00:08:54,    219,    1.6,    3.5,   0.00,   0.00, 1022.1,   69.8, -999.0
31-01-2023, 00:09:05,    222,    1.1,    3.5,   0.00,   0.00, 1022.1,   69.8, -999.0
31-01-2023, 00:09:15,    224,    0.5,    3.4,   0.00,   0.00, 1022.1,   69.8, -999.0
31-01-2023, 00:09:24,    223,    0.1,    3.5,   0.00,   0.00, 1022.0,   69.5, -999.0
31-01-2023, 00:09:35,    222,    0.0,    3.5,   0.00,   0.00, 1021.9,   69.5, -999.0
31-01-2023, 00:09:45,    223,    0.0,    3.5,   0.00,   0.00, 1021.9,   69.4, -999.0
31-01-2023, 00:09:54,    223,    0.0,    3.5,   0.00,   0.00, 1021.9,   69.5, -999.0
31-01-2023, 00:10:04,    222,    0.0,    3.5,   0.00,   0.00, 1021.9,   69.5, -999.0
31-01-2023, 00:10:15,    213,    0.3,    3.5,   0.00,   0.00, 1022.0,   69.8, -999.0
31-01-2023, 00:10:25,    226,    0.6,    3.6,   0.00,   0.00, 1022.0,   69.9, -999.0
31-01-2023, 00:10:34,    226,    0.0,    3.4,   0.00,   0.00, 1021.9,   69.6, -999.0
31-01-2023, 00:10:44,    226,    0.0,    3.5,   0.00,   0.00, 1021.9,   69.5, -999.0
31-01-2023, 00:10:55,    229,    0.2,    3.5,   0.00,   0.00, 1021.9,   69.6, -999.0
31-01-2023, 00:11:04,    246,    1.2,    3.6,   0.00,   0.00, 1022.0,   69.8, -999.0
31-01-2023, 00:11:14,    238,    0.9,    3.6,   0.00,   0.00, 1022.0,   69.8, -999.0
31-01-2023, 00:11:24,    229,    0.0,    3.5,   0.00,   0.00, 1021.9,   69.6, -999.0
31-01-2023, 00:11:35,    246,    0.4,    3.5,   0.00,   0.00, 1022.0,   69.7, -999.0
31-01-2023, 00:11:44,    246,    0.0,    3.5,   0.00,   0.00, 1021.9,   69.5, -999.0
31-01-2023, 00:11:54,    245,    0.0,    3.5,   0.00,   0.00, 1021.9,   69.6, -999.0
31-01-2023, 00:12:04,    244,    0.0,    3.5,   0.00,   0.00, 1021.9,   69.7, -999.0
31-01-2023, 00:12:14,    244,    0.0,    3.4,   0.00,   0.00, 1021.9,   69.7, -999.0
31-01-2023, 00:12:24,    243,    0.0,    3.5,   0.00,   0.00, 1021.9,   69.7, -999.0
31-01-2023, 00:12:34,    244,    0.0,    3.5,   0.00,   0.00, 1021.9,   69.6, -999.0
31-01-2023, 00:12:44,    257,    0.0,    3.5,   0.00,   0.00, 1021.9,   69.7, -999.0
31-01-2023, 00:12:54,    263,    0.2,    3.5,   0.00,   0.00, 1021.9,   69.9, -999.0
31-01-2023, 00:13:04,    234,    0.4,    3.5,   0.00,   0.00, 1021.9,   69.9, -999.0
31-01-2023, 00:13:14,    221,    0.0,    3.5,   0.00,   0.00, 1021.8,   69.6, -999.0
31-01-2023, 00:13:24,    220,    0.0,    3.5,   0.00,   0.00, 1021.9,   69.7, -999.0
31-01-2023, 00:13:34,    217,    0.2,    3.5,   0.00,   0.00, 1021.9,   69.9, -999.0
31-01-2023, 00:13:44,    208,    0.0,    3.5,   0.00,   0.00, 1021.9,   69.7, -999.0
31-01-2023, 00:13:54,    213,    0.1,    3.5,   0.00,   0.00, 1021.9,   69.7, -999.0
31-01-2023, 00:14:04,    220,    0.4,    3.5,   0.00,   0.00, 1021.9,   70.0, -999.0
31-01-2023, 00:14:14,    220,    0.1,    3.5,   0.00,   0.00, 1021.9,   69.8, -999.0
31-01-2023, 00:14:24,    220,    0.0,    3.5,   0.00,   0.00, 1021.9,   69.7, -999.0
31-01-2023, 00:14:34,    221,    0.0,    3.5,   0.00,   0.00, 1021.9,   69.7, -999.0
31-01-2023, 00:14:44,    220,    0.0,    3.5,   0.00,   0.00, 1021.9,   69.8, -999.0
31-01-2023, 00:14:54,    221,    0.0,    3.5,   0.00,   0.00, 1021.8,   69.9, -999.0
31-01-2023, 00:15:04,    186,    0.0,    3.5,   0.00,   0.00, 1021.8,   69.8, -999.0
31-01-2023, 00:15:14,    228,    0.0,    3.5,   0.00,   0.00, 1021.8,   69.8, -999.0
31-01-2023, 00:15:24,    228,    0.0,    3.4,   0.00,   0.00, 1021.8,   69.7, -999.0
31-01-2023, 00:15:34,    228,    0.0,    3.6,   0.00,   0.00, 1021.8,   69.8, -999.0
31-01-2023, 00:15:44,    228,    0.0,    3.5,   0.00,   0.00, 1021.8,   69.8, -999.0
31-01-2023, 00:15:54,    253,    0.5,    3.5,   0.00,   0.00, 1021.9,   70.1, -999.0
31-01-2023, 00:16:04,    228,    0.1,    3.5,   0.00,   0.00, 1021.8,   70.0, -999.0
31-01-2023, 00:16:14,    244,    0.0,    3.5,   0.00,   0.00, 1021.8,   69.9, -999.0
31-01-2023, 00:16:24,    196,    0.5,    3.5,   0.00,   0.00, 1021.8,   70.1, -999.0
31-01-2023, 00:16:34,    222,    0.6,    3.5,   0.00,   0.00, 1021.9,   70.2, -999.0
31-01-2023, 00:16:44,    199,    0.0,    3.5,   0.00,   0.00, 1021.8,   69.9, -999.0
31-01-2023, 00:16:54,    200,    0.0,    3.4,   0.00,   0.00, 1021.7,   70.0, -999.0
31-01-2023, 00:17:04,    199,    0.0,    3.4,   0.00,   0.00, 1021.7,   69.9, -999.0
31-01-2023, 00:17:14,    200,    0.0,    3.6,   0.00,   0.00, 1021.7,   70.0, -999.0
31-01-2023, 00:17:24,    235,    0.2,    3.5,   0.00,   0.00, 1021.8,   70.1, -999.0
31-01-2023, 00:17:34,    228,    0.9,    3.6,   0.00,   0.00, 1021.9,   70.4, -999.0
31-01-2023, 00:17:44,    216,    0.7,    3.6,   0.00,   0.00, 1021.9,   70.5, -999.0
31-01-2023, 00:17:54,    226,    1.1,    3.6,   0.00,   0.00, 1021.9,   70.5, -999.0
31-01-2023, 00:18:04,    223,    0.0,    3.6,   0.00,   0.00, 1021.8,   70.2, -999.0
31-01-2023, 00:18:14,    223,    0.0,    3.5,   0.00,   0.00, 1021.8,   70.1, -999.0
31-01-2023, 00:18:24,    223,    0.0,    3.5,   0.00,   0.00, 1021.7,   70.1, -999.0
31-01-2023, 00:18:34,    280,    0.4,    3.5,   0.00,   0.00, 1021.8,   70.3, -999.0
31-01-2023, 00:18:44,    279,    0.4,    3.6,   0.00,   0.00, 1021.8,   70.3, -999.0
31-01-2023, 00:18:54,    279,    0.0,    3.5,   0.00,   0.00, 1021.8,   70.0, -999.0
31-01-2023, 00:19:03,    279,    0.0,    3.5,   0.00,   0.00, 1021.7,   70.1, -999.0
31-01-2023, 00:19:14,    271,    0.5,    3.5,   0.00,   0.00, 1021.9,   70.4, -999.0
31-01-2023, 00:19:24,    226,    1.9,    3.5,   0.00,   0.00, 1021.9,   70.4, -999.0
31-01-2023, 00:19:34,    236,    1.1,    3.5,   0.00,   0.00, 1021.9,   70.4, -999.0
31-01-2023, 00:19:43,    228,    0.4,    3.6,   0.00,   0.00, 1021.8,   70.4, -999.0
31-01-2023, 00:19:54,    228,    0.2,    3.5,   0.00,   0.00, 1021.8,   70.3, -999.0
31-01-2023, 00:20:04,    207,    0.0,    3.5,   0.00,   0.00, 1021.8,   70.2, -999.0
31-01-2023, 00:20:13,    189,    0.9,    3.5,   0.00,   0.00, 1021.8,   70.4, -999.0
31-01-2023, 00:20:23,    216,    1.4,    3.5,   0.00,   0.00, 1021.9,   70.6, -999.0
31-01-2023, 00:20:34,    258,    0.6,    3.6,   0.00,   0.00, 1021.8,   70.5, -999.0
31-01-2023, 00:20:44,    259,    0.8,    3.6,   0.00,   0.00, 1021.9,   70.5, -999.0
31-01-2023, 00:20:53,    258,    0.0,    3.4,   0.00,   0.00, 1021.7,   70.2, -999.0
31-01-2023, 00:21:03,    258,    0.0,    3.4,   0.00,   0.00, 1021.8,   70.2, -999.0
31-01-2023, 00:21:14,    243,    0.2,    3.5,   0.00,   0.00, 1021.8,   70.3, -999.0
31-01-2023, 00:21:23,    251,    1.2,    3.7,   0.00,   0.00, 1021.9,   70.7, -999.0
31-01-2023, 00:21:33,    231,    1.3,    3.6,   0.00,   0.00, 1021.9,   70.6, -999.0
31-01-2023, 00:21:44,    205,    0.1,    3.5,   0.00,   0.00, 1021.8,   70.3, -999.0
31-01-2023, 00:21:54,    229,    0.4,    3.5,   0.00,   0.00, 1021.8,   70.3, -999.0
31-01-2023, 00:22:03,    229,    0.4,    3.5,   0.00,   0.00, 1021.8,   70.6, -999.0
31-01-2023, 00:22:13,    229,    0.0,    3.4,   0.00,   0.00, 1021.8,   70.3, -999.0
31-01-2023, 00:22:23,    229,    0.0,    3.5,   0.00,   0.00, 1021.8,   70.4, -999.0
31-01-2023, 00:22:33,    229,    0.0,    3.5,   0.00,   0.00, 1021.7,   70.4, -999.0
31-01-2023, 00:22:43,    209,    0.0,    3.4,   0.00,   0.00, 1021.8,   70.4, -999.0
31-01-2023, 00:22:53,    218,    0.0,    3.4,   0.00,   0.00, 1021.7,   70.5, -999.0
31-01-2023, 00:23:03,    237,    0.0,    3.5,   0.00,   0.00, 1021.8,   70.5, -999.0
31-01-2023, 00:23:13,    209,    0.5,    3.5,   0.00,   0.00, 1021.8,   70.7, -999.0
31-01-2023, 00:23:23,    208,    0.2,    3.5,   0.00,   0.00, 1021.8,   70.5, -999.0
31-01-2023, 00:23:33,    244,    2.2,    3.5,   0.00,   0.00, 1021.9,   70.8, -999.0
31-01-2023, 00:23:43,    232,    2.5,    3.5,   0.00,   0.00, 1021.9,   70.9, -999.0
31-01-2023, 00:23:53,    229,    2.1,    3.6,   0.00,   0.00, 1021.9,   70.9, -999.0
31-01-2023, 00:24:03,    229,    0.9,    3.6,   0.00,   0.00, 1021.8,   70.8, -999.0
31-01-2023, 00:24:13,    245,    1.3,    3.5,   0.00,   0.00, 1021.9,   71.0, -999.0
31-01-2023, 00:24:23,    249,    0.9,    3.4,   0.00,   0.00, 1021.9,   70.9, -999.0
31-01-2023, 00:24:33,    247,    0.6,    3.5,   0.00,   0.00, 1021.8,   70.8, -999.0
31-01-2023, 00:24:43,    247,    0.0,    3.4,   0.00,   0.00, 1021.7,   70.7, -999.0
31-01-2023, 00:24:53,    240,    0.0,    3.4,   0.00,   0.00, 1021.8,   70.7, -999.0
31-01-2023, 00:25:03,    238,    0.0,    3.4,   0.00,   0.00, 1021.8,   70.7, -999.0
31-01-2023, 00:25:13,    237,    0.0,    3.4,   0.00,   0.00, 1021.8,   70.7, -999.0
31-01-2023, 00:25:23,    211,    0.0,    3.4,   0.00,   0.00, 1021.8,   70.8, -999.0
31-01-2023, 00:25:33,    199,    0.1,    3.5,   0.00,   0.00, 1021.8,   71.0, -999.0
31-01-2023, 00:25:43,    248,    0.1,    3.5,   0.00,   0.00, 1021.8,   71.0, -999.0
31-01-2023, 00:25:53,    236,    0.7,    3.5,   0.00,   0.00, 1021.9,   71.3, -999.0
31-01-2023, 00:26:03,    234,    0.2,    3.5,   0.00,   0.00, 1021.8,   71.0, -999.0
31-01-2023, 00:26:13,    233,    0.0,    3.4,   0.00,   0.00, 1021.8,   71.2, -999.0
31-01-2023, 00:26:23,    234,    0.0,    3.4,   0.00,   0.00, 1021.7,   71.0, -999.0
31-01-2023, 00:26:33,    237,    0.3,    3.5,   0.00,   0.00, 1021.8,   71.2, -999.0
31-01-2023, 00:26:43,    219,    1.7,    3.6,   0.00,   0.00, 1021.9,   71.4, -999.0
31-01-2023, 00:26:53,    248,    0.9,    3.6,   0.00,   0.00, 1021.9,   71.4, -999.0
31-01-2023, 00:27:03,    232,    1.4,    3.6,   0.00,   0.00, 1021.9,   71.4, -999.0
31-01-2023, 00:27:13,    231,    0.3,    3.6,   0.00,   0.00, 1021.8,   71.3, -999.0
31-01-2023, 00:27:23,    211,    0.0,    3.5,   0.00,   0.00, 1021.7,   71.0, -999.0
31-01-2023, 00:27:33,    197,    0.0,    3.5,   0.00,   0.00, 1021.7,   71.0, -999.0
31-01-2023, 00:27:43,    271,    0.0,    3.4,   0.00,   0.00, 1021.7,   71.0, -999.0
31-01-2023, 00:27:53,    271,    0.0,    3.5,   0.00,   0.00, 1021.7,   71.1, -999.0
31-01-2023, 00:28:03,    207,    0.3,    3.4,   0.00,   0.00, 1021.8,   71.2, -999.0
31-01-2023, 00:28:13,    217,    1.1,    3.4,   0.00,   0.00, 1021.8,   71.2, -999.0
31-01-2023, 00:28:23,    212,    1.1,    3.5,   0.00,   0.00, 1021.9,   71.4, -999.0
31-01-2023, 00:28:33,    223,    0.6,    3.4,   0.00,   0.00, 1021.8,   71.3, -999.0
31-01-2023, 00:28:43,    218,    1.2,    3.5,   0.00,   0.00, 1021.9,   71.5, -999.0
31-01-2023, 00:28:52,    218,    0.0,    3.5,   0.00,   0.00, 1021.7,   71.2, -999.0
31-01-2023, 00:29:03,    219,    0.0,    3.4,   0.00,   0.00, 1021.7,   71.2, -999.0
31-01-2023, 00:29:13,    236,    0.0,    3.4,   0.00,   0.00, 1021.7,   71.2, -999.0
31-01-2023, 00:29:23,    235,    0.0,    3.4,   0.00,   0.00, 1021.7,   71.2, -999.0
31-01-2023, 00:29:33,    236,    0.0,    3.4,   0.00,   0.00, 1021.7,   71.3, -999.0
31-01-2023, 00:29:43,    203,    0.2,    3.4,   0.00,   0.00, 1021.8,   71.5, -999.0
31-01-2023, 00:29:53,    228,    1.3,    3.4,   0.00,   0.00, 1021.9,   71.7, -999.0
31-01-2023, 00:30:02,    226,    2.2,    3.5,   0.00,   0.00, 1021.9,   71.8, -999.0
31-01-2023, 00:30:13,    241,    1.1,    3.5,   0.00,   0.00, 1021.8,   71.8, -999.0
31-01-2023, 00:30:23,    241,    1.0,    3.4,   0.00,   0.00, 1021.8,   71.7, -999.0
31-01-2023, 00:30:32,    232,    0.3,    3.3,   0.00,   0.00, 1021.8,   71.7, -999.0
31-01-2023, 00:30:42,    196,    1.0,    3.5,   0.00,   0.00, 1021.9,   71.9, -999.0
31-01-2023, 00:30:53,    251,    0.3,    3.5,   0.00,   0.00, 1021.8,   71.7, -999.0
31-01-2023, 00:31:03,    237,    0.9,    3.5,   0.00,   0.00, 1021.9,   71.9, -999.0
31-01-2023, 00:31:12,    193,    0.1,    3.4,   0.00,   0.00, 1021.8,   71.6, -999.0
31-01-2023, 00:31:22,    174,    0.1,    3.4,   0.00,   0.00, 1021.8,   71.8, -999.0
31-01-2023, 00:31:33,    186,    0.0,    3.4,   0.00,   0.00, 1021.7,   71.7, -999.0
31-01-2023, 00:31:42,    260,    0.4,    3.4,   0.00,   0.00, 1021.8,   72.0, -999.0
31-01-2023, 00:31:52,    216,    1.1,    3.4,   0.00,   0.00, 1021.8,   72.0, -999.0
31-01-2023, 00:32:02,    212,    1.4,    3.5,   0.00,   0.00, 1021.9,   72.1, -999.0
31-01-2023, 00:32:13,    223,    0.4,    3.5,   0.00,   0.00, 1021.8,   72.0, -999.0
31-01-2023, 00:32:22,    222,    0.0,    3.4,   0.00,   0.00, 1021.7,   71.8, -999.0
31-01-2023, 00:32:32,    214,    0.0,    3.4,   0.00,   0.00, 1021.7,   71.9, -999.0
31-01-2023, 00:32:42,    214,    0.0,    3.4,   0.00,   0.00, 1021.7,   71.9, -999.0
31-01-2023, 00:32:52,    229,    2.8,    3.5,   0.00,   0.00, 1021.9,   72.2, -999.0
31-01-2023, 00:33:02,    230,    2.9,    3.5,   0.00,   0.00, 1021.9,   72.1, -999.0
31-01-2023, 00:33:12,    230,    0.8,    3.4,   0.00,   0.00, 1021.8,   71.9, -999.0
31-01-2023, 00:33:23,    245,    1.7,    3.4,   0.00,   0.00, 1021.8,   72.0, -999.0
31-01-2023, 00:33:32,    219,    2.1,    3.5,   0.00,   0.00, 1021.9,   72.1, -999.0
31-01-2023, 00:33:42,    216,    1.6,    3.5,   0.00,   0.00, 1021.9,   72.1, -999.0
31-01-2023, 00:33:52,    249,    0.5,    3.5,   0.00,   0.00, 1021.8,   72.1, -999.0
31-01-2023, 00:34:02,    199,    0.6,    3.5,   0.00,   0.00, 1021.8,   72.2, -999.0
31-01-2023, 00:34:12,    213,    1.5,    3.5,   0.00,   0.00, 1021.9,   72.3, -999.0
31-01-2023, 00:34:22,    202,    0.8,    3.6,   0.00,   0.00, 1021.9,   72.2, -999.0
31-01-2023, 00:34:32,    200,    0.5,    3.5,   0.00,   0.00, 1021.8,   72.2, -999.0
31-01-2023, 00:34:42,    199,    0.1,    3.5,   0.00,   0.00, 1021.8,   72.0, -999.0
31-01-2023, 00:34:52,    174,    0.1,    3.5,   0.00,   0.00, 1021.8,   72.0, -999.0
31-01-2023, 00:35:02,    174,    0.0,    3.4,   0.00,   0.00, 1021.7,   71.9, -999.0
31-01-2023, 00:35:12,    174,    0.0,    3.4,   0.00,   0.00, 1021.7,   71.9, -999.0
31-01-2023, 00:35:22,    179,    0.0,    3.4,   0.00,   0.00, 1021.7,   71.9, -999.0
31-01-2023, 00:35:32,    179,    0.0,    3.4,   0.00,   0.00, 1021.7,   71.9, -999.0
31-01-2023, 00:35:42,    205,    0.0,    3.4,   0.00,   0.00, 1021.7,   72.0, -999.0
31-01-2023, 00:35:52,    188,    0.1,    3.4,   0.00,   0.00, 1021.7,   72.0, -999.0
31-01-2023, 00:36:02,    188,    0.0,    3.5,   0.00,   0.00, 1021.7,   72.1, -999.0
31-01-2023, 00:36:12,    188,    0.0,    3.5,   0.00,   0.00, 1021.7,   72.0, -999.0
31-01-2023, 00:36:22,    188,    0.0,    3.4,   0.00,   0.00, 1021.7,   71.9, -999.0
31-01-2023, 00:36:32,    188,    0.0,    3.5,   0.00,   0.00, 1021.7,   72.0, -999.0
31-01-2023, 00:36:42,    249,    0.0,    3.4,   0.00,   0.00, 1021.7,   72.0, -999.0
31-01-2023, 00:36:52,    248,    0.0,    3.4,   0.00,   0.00, 1021.7,   72.0, -999.0
31-01-2023, 00:37:02,    247,    0.1,    3.4,   0.00,   0.00, 1021.7,   72.1, -999.0
31-01-2023, 00:37:12,    244,    0.0,    3.5,   0.00,   0.00, 1021.7,   72.1, -999.0
31-01-2023, 00:37:22,    244,    0.0,    3.4,   0.00,   0.00, 1021.7,   72.1, -999.0
31-01-2023, 00:37:32,    244,    0.0,    3.4,   0.00,   0.00, 1021.7,   72.0, -999.0
31-01-2023, 00:37:42,    275,    0.4,    3.5,   0.00,   0.00, 1021.8,   72.4, -999.0
31-01-2023, 00:37:52,    238,    1.3,    3.6,   0.00,   0.00, 1021.8,   72.4, -999.0
31-01-2023, 00:38:02,    231,    2.3,    3.6,   0.00,   0.00, 1021.7,   72.5, -999.0
31-01-2023, 00:38:12,    229,    3.2,    3.6,   0.00,   0.00, 1021.8,   72.5, -999.0
31-01-2023, 00:38:22,    212,    1.6,    3.6,   0.00,   0.00, 1021.8,   72.5, -999.0
31-01-2023, 00:38:32,    242,    1.6,    3.5,   0.00,   0.00, 1021.7,   72.5, -999.0
31-01-2023, 00:38:42,    253,    1.3,    3.6,   0.00,   0.00, 1021.7,   72.5, -999.0
31-01-2023, 00:38:52,    231,    0.0,    3.5,   0.00,   0.00, 1021.6,   72.0, -999.0
31-01-2023, 00:39:02,    226,    0.1,    3.5,   0.00,   0.00, 1021.6,   72.3, -999.0
31-01-2023, 00:39:12,    219,    1.9,    3.5,   0.00,   0.00, 1021.7,   72.6, -999.0
31-01-2023, 00:39:22,    223,    1.9,    3.6,   0.00,   0.00, 1021.7,   72.5, -999.0
31-01-2023, 00:39:32,    225,    0.9,    3.6,   0.00,   0.00, 1021.7,   72.5, -999.0
31-01-2023, 00:39:41,    224,    0.0,    3.5,   0.00,   0.00, 1021.6,   72.1, -999.0
31-01-2023, 00:39:52,    209,    0.0,    3.5,   0.00,   0.00, 1021.6,   72.1, -999.0
31-01-2023, 00:40:02,    206,    0.0,    3.5,   0.00,   0.00, 1021.6,   72.1, -999.0
31-01-2023, 00:40:12,    209,    0.0,    3.5,   0.00,   0.00, 1021.7,   72.2, -999.0
31-01-2023, 00:40:21,    207,    0.2,    3.5,   0.00,   0.00, 1021.7,   72.3, -999.0
31-01-2023, 00:40:32,    207,    0.0,    3.5,   0.00,   0.00, 1021.7,   72.2, -999.0
31-01-2023, 00:40:42,    250,    0.0,    3.5,   0.00,   0.00, 1021.6,   72.1, -999.0
31-01-2023, 00:40:51,    251,    0.1,    3.5,   0.00,   0.00, 1021.7,   72.2, -999.0
31-01-2023, 00:41:02,    251,    0.0,    3.4,   0.00,   0.00, 1021.6,   72.1, -999.0
31-01-2023, 00:41:12,    250,    0.0,    3.4,   0.00,   0.00, 1021.7,   72.1, -999.0
31-01-2023, 00:41:22,    210,    0.2,    3.5,   0.00,   0.00, 1021.7,   72.4, -999.0
31-01-2023, 00:41:31,    200,    1.1,    3.5,   0.00,   0.00, 1021.7,   72.3, -999.0
31-01-2023, 00:41:42,    250,    1.1,    3.5,   0.00,   0.00, 1021.7,   72.5, -999.0
31-01-2023, 00:41:52,    245,    0.4,    3.5,   0.00,   0.00, 1021.7,   72.4, -999.0
31-01-2023, 00:42:01,    245,    0.0,    3.5,   0.00,   0.00, 1021.7,   72.3, -999.0
31-01-2023, 00:42:11,    244,    0.0,    3.4,   0.00,   0.00, 1021.7,   72.2, -999.0
31-01-2023, 00:42:22,    244,    0.0,    3.4,   0.00,   0.00, 1021.7,   72.2, -999.0
31-01-2023, 00:42:31,    244,    0.0,    3.4,   0.00,   0.00, 1021.7,   72.2, -999.0
31-01-2023, 00:42:41,    244,    0.0,    3.4,   0.00,   0.00, 1021.7,   72.3, -999.0
31-01-2023, 00:42:51,    244,    0.0,    3.5,   0.00,   0.00, 1021.7,   72.3, -999.0
31-01-2023, 00:43:02,    244,    0.0,    3.4,   0.00,   0.00, 1021.7,   72.3, -999.0
31-01-2023, 00:43:11,    243,    0.0,    3.4,   0.00,   0.00, 1021.7,   72.3, -999.0
31-01-2023, 00:43:21,    209,    0.0,    3.4,   0.00,   0.00, 1021.6,   72.2, -999.0
31-01-2023, 00:43:31,    210,    0.0,    3.5,   0.00,   0.00, 1021.6,   72.4, -999.0
31-01-2023, 00:43:41,    230,    1.4,    3.4,   0.00,   0.00, 1021.8,   72.6, -999.0
31-01-2023, 00:43:51,    214,    2.9,    3.5,   0.00,   0.00, 1021.8,   72.8, -999.0
31-01-2023, 00:44:01,    212,    0.4,    3.5,   0.00,   0.00, 1021.7,   72.6, -999.0
31-01-2023, 00:44:12,    173,    0.9,    3.5,   0.00,   0.00, 1021.7,   72.7, -999.0
31-01-2023, 00:44:21,    178,    0.5,    3.5,   0.00,   0.00, 1021.7,   72.7, -999.0
31-01-2023, 00:44:31,    218,    0.3,    3.5,   0.00,   0.00, 1021.7,   72.6, -999.0
31-01-2023, 00:44:41,    153,    2.9,    3.6,   0.00,   0.00, 1021.7,   72.8, -999.0
31-01-2023, 00:44:51,    223,    1.2,    3.6,   0.00,   0.00, 1021.7,   72.7, -999.0
31-01-2023, 00:45:01,    211,    0.8,    3.6,   0.00,   0.00, 1021.7,   72.7, -999.0
31-01-2023, 00:45:11,    257,    1.4,    3.6,   0.00,   0.00, 1021.7,   72.9, -999.0
31-01-2023, 00:45:21,    239,    1.3,    3.6,   0.00,   0.00, 1021.7,   72.8, -999.0
31-01-2023, 00:45:31,    222,    0.7,    3.5,   0.00,   0.00, 1021.7,   72.7, -999.0
31-01-2023, 00:45:41,    220,    0.0,    3.5,   0.00,   0.00, 1021.6,   72.3, -999.0
31-01-2023, 00:45:51,    195,    0.3,    3.5,   0.00,   0.00, 1021.6,   72.5, -999.0
31-01-2023, 00:46:01,    192,    0.1,    3.5,   0.00,   0.00, 1021.6,   72.5, -999.0
31-01-2023, 00:46:11,    239,    1.0,    3.5,   0.00,   0.00, 1021.7,   72.8, -999.0
31-01-2023, 00:46:21,    239,    0.2,    3.5,   0.00,   0.00, 1021.6,   72.5, -999.0
31-01-2023, 00:46:31,    239,    0.0,    3.5,   0.00,   0.00, 1021.6,   72.5, -999.0
31-01-2023, 00:46:41,    236,    0.3,    3.5,   0.00,   0.00, 1021.6,   72.6, -999.0
31-01-2023, 00:46:51,    239,    0.3,    3.5,   0.00,   0.00, 1021.6,   72.6, -999.0